Flag for U.S.A. Weather past 2 weeks in Dayton, Ohio, U.S.A.

Now
66 °F

Scattered clouds.


Feels Like: 66 °F
Forecast: 60 / 76 °F
Wind: 9 mph from Northeast

Location: Dayton / Wright-Patterson Air Force Base

Current Time: Jul 24, 2014 at 11:58:08 AM

Latest Report: Jul 24, 2014 at 10:58 AM


Visibility: 10 mi

Pressure: 30.07 "Hg

Humidity: 72%

Dew point: 57 °F

Location of DaytonLocation

Historic Weather in Dayton — Graph

°F

Dayton temperature yesterday

Maximum temperature yesterday: 78 °F (at 4:58 PM)
Minimum temperature yesterday: 66 °F (at 11:58 PM)
Average temperature yesterday: 72 °F

Past Weeks' High & Low Weather Summary

 TemperatureHumidityPressure
High88 °F (Jul 13, 3:58 PM)100% (Jul 14, 1:58 AM)30.22 "Hg (Jul 14, 1:58 AM)
Low52 °F (Jul 17, 4:58 AM)41% (Jul 17, 3:58 PM)29.81 "Hg (Jul 15, 2:58 AM)
Average70 °F77%30.05 "Hg
* Reported Jul 9 10:58 AM — Jul 24 10:58 AM, Dayton, Weather by CustomWeather, © 2014

Note: Actual official high and low records may vary slightly from our data, if they occured in-between our weather recording intervals... More about our weather records

Advertising

Dayton weather history for previous 24 hours

 ConditionsComfort  
Time TempWeatherWind HumidityBarometerVisibility
10:58 AM
Jul 24
66 °FScattered clouds.9 mph72%30.07 "Hg10 mi
9:58 AM65 °FPartly sunny.14 mph76%30.08 "Hg10 mi
8:58 AM63 °FPassing clouds.9 mph81%30.07 "Hg10 mi
7:58 AM60 °FPassing clouds.7 mph87%30.06 "Hg10 mi
6:58 AM58 °FPassing clouds.6 mph92%30.05 "Hg10 mi
5:58 AM58 °FClear.12 mph93%30.04 "Hg10 mi
4:58 AM59 °FClear.8 mph93%30.04 "Hg10 mi
3:58 AM59 °FPassing clouds.6 mph91%30.04 "Hg10 mi
2:58 AM60 °FClear.6 mph90%30.03 "Hg10 mi
1:58 AM62 °FClear.7 mph87%30.03 "Hg10 mi
12:58 AM64 °FPassing clouds.10 mph86%30.03 "Hg10 mi
11:58 PM
Jul 23
66 °FMostly cloudy.12 mph86%30.04 "Hg10 mi
10:58 PM67 °FMostly cloudy.10 mph92%30.05 "Hg10 mi
9:58 PM68 °FMostly cloudy.7 mph91%30.03 "Hg10 mi
8:58 PM68 °FLight rain. Fog.13 mph94%30.02 "Hg2 mi
7:58 PM70 °FLight rain. Overcast.9 mph88%30.01 "Hg8 mi
6:58 PM72 °FMore clouds than sun.13 mph85%29.99 "Hg10 mi
5:58 PM78 °FScattered clouds.8 mph74%29.98 "Hg10 mi
4:58 PM78 °FScattered clouds.7 mph74%29.98 "Hg10 mi
3:58 PM77 °FPartly sunny.6 mph74%30.00 "Hg10 mi
2:58 PM77 °FMostly cloudy.7 mph71%30.00 "Hg10 mi
1:58 PM75 °FMore clouds than sun.7 mph74%30.01 "Hg10 mi
12:58 PM75 °FPassing clouds.6 mph77%30.03 "Hg10 mi
11:58 AM78 °FSunny.15 mph72%30.04 "Hg10 mi
Weather by CustomWeather, © 2014

See weather overviewHow to use our weather pages